DW9840 Weather Reports


time (UTC)temp
C
wind
direction
speed
KPH
gust
KPH
rain 1hr
cm
rain 24hr
cm
rain mn
cm
humidity
%
barometer
mb
20260506140015 -17 0.0 0.0 0.00 0.00 0.00 1019.4
20260506134507 -17 0.0 0.0 0.00 0.00 0.00 1019.3
20260506133102 -17 0.0 0.0 0.00 0.00 0.00 1019.3
20260506131546 -17 0.0 0.0 0.00 0.00 0.00 1019.2
20260506130036 -17 0.0 0.0 0.00 0.00 0.00 1019.1
20260506124514 -17 0.0 0.0 0.00 0.00 0.00 1019.0
20260506123010 -17 0.0 0.0 0.00 0.00 0.00 1019.0
20260506121556 -17 0.0 0.0 0.00 0.00 0.00 1018.9
20260506120050 -17 0.0 0.0 0.00 0.00 0.00 1018.9
20260506114545 14 211 0.0 0.0 0.00 0.00 0.00 3 1018.8
20260506113043 15 226 0.0 0.0 0.00 0.00 0.00 3 1018.7
20260506111536 15 214 0.0 0.0 0.00 0.00 0.00 3 1018.6
20260506110033 15 221 0.0 0.0 0.00 0.00 0.00 3 1018.5
20260506104533 15 201 0.0 0.0 0.00 0.00 0.00 3 1018.4
20260506103026 15 217 0.0 0.0 0.00 0.00 0.00 3 1018.3
20260506101501 15 217 0.0 0.0 0.00 0.00 0.00 3 1018.2
20260506100057 15 219 0.0 0.0 0.00 0.00 0.00 3 1018.2
20260506094539 15 136 0.0 0.0 0.00 0.00 0.00 3 1018.1
20260506093032 16 158 0.0 0.0 0.00 0.00 0.00 3 1018.1
20260506091510 15 203 0.0 0.0 0.00 0.00 0.00 3 1018.2
20260506090006 15 203 0.0 0.0 0.00 0.00 0.00 3 1018.2
20260506084548 15 203 0.0 0.0 0.00 0.03 0.00 3 1018.2
20260506083040 15 222 0.0 0.0 0.00 0.03 0.00 3 1018.3
20260506081520 15 203 0.0 0.0 0.00 0.03 0.00 3 1018.2
20260506073047 16 203 0.0 0.0 0.00 0.05 0.00 3 1017.9
20260506071526 16 178 0.0 0.0 0.00 0.05 0.00 3 1017.8
20260506061532 16 127 0.0 0.0 0.00 0.41 0.05 3 1017.4
20260506044522 16 136 0.0 1.6 0.00 0.51 0.05 3 1016.7
20260506043015 16 135 0.0 4.8 0.00 0.51 0.05 3 1016.5
20260506041510 16 203 0.0 3.2 0.00 0.51 0.05 3 1016.3
20260506040007 16 211 0.0 8.0 0.00 0.51 0.05 3 1016.2
20260506034505 16 121 0.0 1.6 0.00 0.58 0.05 3 1016.1
20260506033058 16 217 0.0 4.8 0.00 0.58 0.05 9 1015.9
20260506031606 16 179 0.0 0.0 0.00 0.58 0.05 17 1015.4
20260506030048 15 194 0.0 3.2 0.00 0.58 0.05 26 1015.2
20260506024552 15 212 0.0 9.7 0.00 0.76 0.05 34 1015.2
20260506023022 15 153 0.0 1.6 0.00 0.76 0.05 42 1015.1
20260506021600 16 215 0.0 4.8 0.00 0.76 0.05 51 1015.0
20260506021501 16 195 0.0 4.8 0.00 0.76 0.05 52 1015.0
20260506020059 16 165 0.0 1.6 0.00 0.76 0.05 58 1014.8
20260506014536 16 208 0.0 3.2 0.00 0.91 0.05 61 1014.7
20260506013040 17 233 0.0 3.2 0.00 0.91 0.05 60 1014.7
20260506011510 17 224 0.0 3.2 0.00 0.91 0.05 58 1014.4
20260506010009 17 205 0.0 6.4 0.00 0.91 0.05 59 1014.5
20260506004542 17 215 0.0 8.0 0.00 1.12 0.05 60 1014.5
20260506003039 17 224 0.0 6.4 0.00 1.12 0.05 60 1014.4
20260506001517 17 180 0.0 6.4 0.00 1.12 0.05 60 1014.3
20260506000011 17 233 0.0 8.0 0.00 1.12 0.05 59 1014.2
20260505234549 17 214 0.0 11.3 0.00 1.22 0.05 60 1014.3
20260505233044 17 158 0.0 9.7 0.00 1.22 0.05 60 1014.2
20260505231522 18 162 0.0 1.6 0.00 1.22 0.05 61 1014.3
20260505230034 18 233 0.0 16.1 0.00 1.22 0.05 61 1014.2
20260505224556 18 134 0.0 6.4 0.00 1.27 0.05 61 1014.2
20260505223106 18 181 0.0 0.0 0.00 1.27 0.05 61 1014.2
20260505221534 19 211 0.0 0.0 0.00 1.27 0.05 61 1014.4
20260505220025 18 224 0.0 0.0 0.00 1.27 0.05 60 1014.4
20260505214511 18 218 0.0 0.0 0.00 1.27 0.05 61 1014.5
20260505213004 18 147 0.0 1.6 0.00 1.27 0.05 60 1014.6
20260505211559 18 177 0.0 1.6 0.00 1.27 0.05 60 1014.7
20260505210058 18 232 0.0 0.0 0.00 1.27 0.05 59 1014.8
20260505204553 18 229 0.0 0.0 0.00 1.27 0.05 60 1014.8
20260505203053 18 174 0.0 0.0 0.00 1.27 0.05 61 1014.8
20260505201543 18 173 0.0 4.8 0.00 1.27 0.05 61 1014.9
20260505200042 19 177 0.0 0.0 0.00 1.27 0.05 60 1014.9
20260505194543 19 291 0.0 0.0 0.00 1.27 0.05 60 1014.9
20260505193022 18 204 0.0 0.0 0.00 1.27 0.05 60 1014.9
20260505191519 18 180 0.0 0.0 0.00 1.27 0.05 60 1015.0
20260505190013 18 224 0.0 0.0 0.00 1.27 0.05 60 1014.9
20260505184511 18 134 0.0 0.0 0.00 1.27 0.05 60 1014.9
20260505183004 18 332 0.0 0.0 0.00 1.27 0.05 59 1014.9
20260505181601 18 203 0.0 0.0 0.00 1.27 0.05 58 1014.9
20260505180056 18 195 0.0 0.0 0.00 1.27 0.05 58 1014.8
20260505174552 18 297 0.0 0.0 0.00 1.27 0.05 55 1014.8
20260505173041 18 319 0.0 0.0 0.00 1.27 0.05 32 1014.7
20260505171526 17 208 0.0 0.0 0.00 1.27 0.05 17 1014.7
20260505170013 18 186 0.0 0.0 0.00 1.27 0.05 3 1014.7
20260505164515 17 186 0.0 0.0 0.00 1.27 0.05 3 1014.7
20260505163010 17 186 0.0 0.0 0.00 1.27 0.05 3 1014.7
20260505161558 16 186 0.0 0.0 0.00 1.27 0.05 3 1014.6
20260505153101 13 186 0.0 0.0 0.00 1.27 0.05 3 1014.4
20260505151548 13 186 0.0 0.0 0.00 1.27 0.05 3 1014.2